Location: Bletchingley
(51.2333°N, 0.1000°W)
Time: 16:25:09
(UTC+00:00)

USA 186 - Pass Details

Date: 18 September 2020
Orbit: 261 x 425 km, 96.9° (Epoch: 12 October)

Event Time Altitude Azimuth Distance (km) Brightness Sun altitude
Exits shadow 18:49:23 - 138° (SE) 1,792 4.5 -7.4°
Reaches altitude 10° 18:50:14 10° 132° (SE) 1,454 4.0 -7.6°
Maximum altitude 18:53:02 30° 69° (ENE) 767 2.6 -8.0°
Drops below altitude 10° 18:55:56 10° 6° (N) 1,519 4.7 -8.4°
Sets 18:58:07 0° 356° (N) 2,404 5.8 -8.8°
